"startDT [UTC]","vpos","CH4 [ppm]","stdev(CH4) [ppm]","CO2 [ppm]","stdev(CO2) [ppm]","H2O_reported [%]","stdev(H2O_reported)","CavityPressure [torr]","CavityTemp [C]","OutletValve","CH4_dry [ppm]","CO2_dry [ppm]","DasTemp [C]","EtalonTemp [C]","WarmBoxTemp [C]","MPVPosition","T_ECpre [C]","T_EC1 [C]","T_EC2 [C]","p_inlet [hPa]","p_in [hPa]","p_out [hPa]","T_inlet [C]","RH_inlet [%]","dwpt_inlet [C]","T_vent [C]","RH_vent [%]","dwpt_vent [C]","flow_vent [l min-1]","flow_inlet [l min-1]","dwpt_sample [C]","T_room [C]"
2015-12-07 00:00:00,3.0,1.88658,0.02468,399.393,3.400,0.0155,0.0188,139.989,45.000,31404.53349,1.88934,399.648,31.881,45.070,45.000,0.00,0.09,-272.76,-272.80,-2,502,-944,18.0,2.4,-30.1,18.3,2.5,-29.6,5.73,2.04,-18.1,24.8
2015-12-07 00:01:00,3.0,1.87703,0.00032,397.389,0.042,0.0040,0.0020,139.999,45.000,31393.33290,1.87709,397.410,31.878,45.070,45.000,0.00,0.09,-272.76,-272.80,-3,501,-944,18.0,2.4,-30.1,18.3,2.5,-29.7,5.73,2.35,-18.1,24.8
2015-12-07 00:02:00,3.0,1.87715,0.00038,397.477,0.076,0.0033,0.0014,140.000,45.000,31391.13756,1.87721,397.490,31.875,45.070,45.000,0.00,0.08,-272.74,-272.82,-2,501,-944,18.0,2.4,-30.0,18.3,2.5,-29.6,5.73,2.04,-18.1,24.8
2015-12-07 00:03:00,3.0,1.87702,0.00037,397.631,0.033,0.0042,0.0012,140.000,45.000,31389.29701,1.87712,397.650,31.870,45.070,45.000,0.00,0.09,-272.77,-272.80,-2,501,-944,18.0,2.5,-29.9,18.3,2.5,-29.4,5.73,2.09,-18.1,24.8
2015-12-07 00:04:00,3.0,1.87693,0.00042,397.625,0.014,0.0034,0.0018,140.000,45.000,31390.02669,1.87700,397.641,31.866,45.070,45.000,0.00,0.09,-272.75,-272.81,-3,501,-944,18.0,2.5,-29.9,18.3,2.5,-29.4,5.73,2.33,-18.1,24.8
2015-12-07 00:05:00,3.0,1.87698,0.00047,397.620,0.032,0.0034,0.0022,139.998,45.000,31388.42471,1.87704,397.637,31.874,45.070,45.000,0.00,0.09,-272.74,-272.81,-3,501,-944,18.0,2.5,-29.8,18.4,2.5,-29.4,5.73,1.95,-18.1,24.8
2015-12-07 00:06:00,3.0,1.87712,0.00031,397.626,0.030,0.0025,0.0018,140.000,45.000,31389.32598,1.87712,397.637,31.874,45.070,45.000,0.00,0.09,-272.77,-272.80,-2,502,-944,18.1,2.5,-29.7,18.4,2.6,-29.3,5.73,2.23,-18.1,24.8
2015-12-07 00:07:00,3.0,1.87712,0.00033,397.625,0.030,0.0028,0.0018,139.996,45.000,31389.12144,1.87718,397.639,31.868,45.070,45.000,0.00,0.08,-272.74,-272.82,-3,502,-944,18.1,2.4,-30.0,18.4,2.5,-29.4,5.73,2.23,-18.1,24.8
2015-12-07 00:08:00,3.0,1.87725,0.00037,397.640,0.024,0.0017,0.0017,139.998,45.000,31388.49328,1.87728,397.649,31.860,45.070,45.000,0.00,0.09,-272.74,-272.81,-3,502,-944,18.1,2.4,-30.3,18.4,2.4,-29.7,5.73,1.96,-18.1,24.8
2015-12-07 00:09:00,3.0,1.87743,0.00028,397.625,0.028,-0.0001,0.0021,139.999,45.000,31388.81657,1.87743,397.624,31.866,45.070,45.000,0.00,0.09,-272.76,-272.80,-2,502,-944,18.1,2.3,-30.5,18.4,2.4,-29.9,5.73,2.33,-18.1,24.8
2015-12-07 00:10:00,3.0,1.87723,0.00037,397.621,0.036,0.0006,0.0021,140.000,45.000,31391.99208,1.87726,397.623,31.868,45.070,45.000,0.00,0.08,-272.74,-272.83,-3,503,-944,18.2,2.3,-30.6,18.5,2.4,-30.1,5.73,2.00,-18.1,24.8
2015-12-07 00:11:00,3.0,1.87711,0.00034,397.622,0.040,0.0014,0.0019,139.998,45.000,31393.17236,1.87712,397.630,31.860,45.070,45.000,0.00,0.09,-272.75,-272.80,-3,503,-944,18.2,2.3,-30.6,18.5,2.4,-30.0,5.73,1.95,-18.1,24.8
2015-12-07 00:12:00,3.0,1.87738,0.00037,397.623,0.027,-0.0001,0.0024,139.998,45.000,31394.13609,1.87737,397.623,31.855,45.070,45.000,0.00,0.09,-272.76,-272.81,-2,503,-944,18.2,2.3,-30.7,18.5,2.4,-30.1,5.73,2.30,-18.1,24.9
2015-12-07 00:13:00,3.0,1.87718,0.00038,397.622,0.031,0.0003,0.0019,139.999,45.000,31396.65313,1.87720,397.622,31.843,45.070,45.000,0.00,0.09,-272.74,-272.83,-2,503,-944,18.3,2.3,-30.6,18.5,2.3,-30.1,5.73,1.95,-18.1,24.9
2015-12-07 00:14:00,3.0,1.87721,0.00033,397.650,0.034,0.0003,0.0014,139.999,45.000,31396.88976,1.87720,397.650,31.849,45.070,45.000,0.00,0.09,-272.77,-272.79,-3,504,-944,18.3,2.3,-30.5,18.6,2.3,-30.1,5.73,2.14,-18.1,24.9
2015-12-07 00:15:00,3.0,1.87746,0.00028,397.627,0.021,0.0003,0.0016,139.998,45.000,31398.54412,1.87747,397.629,31.827,45.070,45.000,0.00,0.09,-272.74,-272.81,-2,504,-944,18.3,2.3,-30.5,18.6,2.4,-29.9,5.73,2.24,-18.1,24.9
2015-12-07 00:16:00,3.0,1.87717,0.00027,397.638,0.028,-0.0001,0.0019,139.999,45.000,31400.88101,1.87720,397.639,31.821,45.070,45.000,0.00,0.09,-272.75,-272.81,-2,504,-944,18.4,2.3,-30.3,18.6,2.4,-29.9,5.73,1.94,-18.1,24.9
2015-12-07 00:17:00,3.0,1.87709,0.00027,397.639,0.030,0.0008,0.0015,139.998,45.000,31401.79651,1.87709,397.642,31.817,45.070,45.000,0.00,0.09,-272.77,-272.80,-3,504,-944,18.4,2.3,-30.4,18.7,2.4,-29.9,5.73,2.28,-18.1,24.9
2015-12-07 00:18:00,3.0,1.87727,0.00037,397.655,0.025,0.0002,0.0019,139.996,45.000,31402.89654,1.87729,397.656,31.841,45.070,45.000,0.00,0.09,-272.74,-272.82,-3,504,-944,18.5,2.3,-30.5,18.7,2.3,-30.0,5.73,2.16,-18.1,25.0
2015-12-07 00:19:00,3.0,1.87701,0.00040,397.648,0.031,0.0002,0.0011,139.995,45.000,31405.65335,1.87701,397.648,31.855,45.070,45.000,0.00,0.09,-272.75,-272.80,-2,505,-944,18.5,2.2,-30.7,18.7,2.3,-30.2,5.73,1.98,-17.0,25.0
2015-12-07 00:20:00,0.0,1.94030,0.02419,406.375,3.434,0.0412,0.0191,140.008,45.000,31484.82281,1.93861,406.401,31.849,45.070,45.000,0.00,0.09,-272.76,-272.81,-4,516,-944,18.5,2.2,-31.0,18.8,2.3,-30.4,5.73,2.32,-17.0,25.0
2015-12-07 00:21:00,0.0,1.95035,0.00035,407.870,0.032,0.0536,0.0013,139.999,45.000,31497.59623,1.95137,408.133,31.869,45.070,45.000,0.00,0.09,-272.74,-272.82,-5,517,-944,18.6,2.2,-31.0,18.8,2.2,-30.5,5.73,2.21,-17.1,25.0
2015-12-07 00:22:00,0.0,1.95070,0.00021,407.857,0.027,0.0544,0.0017,139.997,45.000,31501.00945,1.95175,408.124,31.862,45.070,45.000,0.00,0.09,-272.73,-272.81,-4,518,-944,18.6,2.1,-31.0,18.8,2.2,-30.4,5.73,2.00,-17.2,25.0
2015-12-07 00:23:00,0.0,1.95064,0.00033,407.864,0.032,0.0545,0.0020,139.999,45.000,31505.11013,1.95168,408.131,31.853,45.070,45.000,0.00,0.09,-272.76,-272.80,-3,518,-944,18.6,2.2,-30.8,18.8,2.2,-30.4,5.73,2.23,-17.3,25.0
2015-12-07 00:24:00,0.0,1.95051,0.00028,407.856,0.035,0.0554,0.0017,139.999,45.000,31510.13371,1.95159,408.127,31.856,45.070,45.000,0.00,0.09,-272.75,-272.80,-4,518,-944,18.6,2.2,-30.7,18.9,2.3,-30.3,5.73,2.34,-17.3,25.1
2015-12-07 00:25:00,0.0,1.95028,0.00027,407.838,0.037,0.0550,0.0015,139.998,45.000,31512.69893,1.95134,408.108,31.863,45.070,45.000,0.00,0.09,-272.74,-272.82,-5,518,-944,18.6,2.2,-30.7,18.9,2.3,-30.3,5.73,2.05,-17.4,25.1
2015-12-07 00:26:00,0.0,1.95021,0.00028,407.865,0.040,0.0556,0.0016,139.999,45.000,31515.40972,1.95127,408.137,31.826,45.070,45.000,0.00,0.09,-272.76,-272.80,-4,519,-944,18.7,2.2,-30.8,18.9,2.3,-30.3,5.73,2.07,-17.4,25.1
2015-12-07 00:27:00,0.0,1.95028,0.00032,407.878,0.030,0.0539,0.0018,139.998,45.000,31516.50522,1.95132,408.143,31.813,45.070,45.000,0.00,0.09,-272.76,-272.81,-3,518,-944,18.7,2.1,-31.0,18.9,2.2,-30.4,5.73,2.35,-17.5,25.1
2015-12-07 00:28:00,0.0,1.95005,0.00041,407.858,0.029,0.0537,0.0013,139.999,45.000,31517.84132,1.95109,408.123,31.813,45.070,45.000,0.00,0.09,-272.74,-272.82,-4,518,-944,18.7,2.1,-31.2,18.9,2.2,-30.6,5.73,2.19,-17.5,25.1
2015-12-07 00:29:00,0.0,1.95019,0.00027,407.864,0.032,0.0528,0.0017,140.001,45.000,31519.13249,1.95118,408.121,31.814,45.070,45.000,0.00,0.09,-272.75,-272.81,-5,519,-944,18.6,2.1,-31.2,18.9,2.2,-30.7,5.73,1.99,-17.5,25.1
2015-12-07 00:30:00,0.0,1.95009,0.00037,407.860,0.038,0.0536,0.0018,139.999,45.000,31520.57828,1.95111,408.124,31.811,45.071,45.000,0.00,0.09,-272.77,-272.80,-5,519,-944,18.7,2.1,-31.2,18.9,2.2,-30.6,5.73,2.26,-17.6,25.1
2015-12-07 00:31:00,0.0,1.95025,0.00035,407.887,0.035,0.0538,0.0014,139.999,45.000,31521.54640,1.95130,408.150,31.807,45.071,45.000,0.00,0.09,-272.75,-272.81,-4,519,-944,18.7,2.1,-31.3,18.9,2.2,-30.7,5.73,2.32,-17.6,25.1
2015-12-07 00:32:00,0.0,1.95035,0.00032,407.928,0.038,0.0525,0.0014,139.997,45.000,31523.13260,1.95137,408.186,31.811,45.071,45.000,0.00,0.09,-272.74,-272.81,-4,519,-944,18.7,2.1,-31.4,18.9,2.2,-30.7,5.73,2.03,-17.6,25.1
2015-12-07 00:33:00,0.0,1.95047,0.00030,407.899,0.026,0.0520,0.0016,139.996,45.000,31521.45516,1.95146,408.153,31.809,45.071,45.000,0.00,0.09,-272.76,-272.80,-4,519,-944,18.6,2.1,-31.4,18.9,2.1,-30.8,5.73,2.11,-17.6,25.1
2015-12-07 00:34:00,0.0,1.95034,0.00043,407.881,0.029,0.0528,0.0012,139.999,45.000,31522.82190,1.95136,408.141,31.812,45.070,45.000,0.00,0.09,-272.76,-272.80,-5,519,-944,18.6,2.1,-31.4,18.9,2.1,-30.8,5.73,2.36,-17.7,25.1
2015-12-07 00:35:00,0.0,1.95035,0.00036,407.864,0.035,0.0516,0.0018,139.995,45.000,31523.15264,1.95133,408.116,31.808,45.070,45.000,0.00,0.09,-272.73,-272.82,-4,519,-944,18.6,2.0,-31.5,18.9,2.1,-30.8,5.73,2.16,-17.7,25.1
2015-12-07 00:36:00,0.0,1.95038,0.00035,407.889,0.037,0.0517,0.0018,139.997,45.000,31523.23947,1.95139,408.143,31.812,45.070,45.000,0.00,0.09,-272.75,-272.81,-3,519,-944,18.6,2.0,-31.5,18.9,2.1,-30.9,5.73,2.00,-17.7,25.1
2015-12-07 00:37:00,0.0,1.95058,0.00032,407.876,0.033,0.0512,0.0017,139.999,45.000,31524.37457,1.95154,408.128,31.812,45.070,45.000,0.00,0.09,-272.76,-272.80,-4,519,-944,18.6,2.0,-31.7,18.9,2.1,-31.1,5.73,2.28,-17.7,25.1
2015-12-07 00:38:00,0.0,1.95043,0.00044,407.890,0.029,0.0515,0.0017,140.001,45.000,31526.69404,1.95141,408.142,31.813,45.070,45.000,0.00,0.09,-272.74,-272.81,-5,519,-944,18.6,2.0,-31.6,18.9,2.1,-31.1,5.73,2.30,-17.7,25.1
2015-12-07 00:39:00,0.0,1.95058,0.00040,407.911,0.036,0.0505,0.0016,140.000,45.000,31525.80319,1.95156,408.158,31.808,45.070,45.000,0.00,0.09,-272.74,-272.82,-4,519,-944,18.5,2.0,-31.7,18.9,2.1,-31.1,5.73,2.01,-17.8,25.1
2015-12-07 00:40:00,0.0,1.95053,0.00035,407.885,0.025,0.0511,0.0025,140.002,45.000,31527.26572,1.95149,408.135,31.771,45.070,45.000,0.00,0.09,-272.77,-272.80,-3,519,-944,18.5,2.0,-31.7,18.9,2.1,-31.2,5.73,2.14,-17.8,25.1
2015-12-07 00:41:00,0.0,1.95047,0.00030,407.889,0.023,0.0507,0.0017,140.000,45.000,31526.27683,1.95147,408.139,31.771,45.070,45.000,0.00,0.09,-272.77,-272.80,-4,519,-944,18.5,2.0,-31.7,18.8,2.1,-31.1,5.73,2.37,-17.8,25.1
2015-12-07 00:42:00,0.0,1.95036,0.00038,407.889,0.033,0.0487,0.0017,139.999,45.000,31526.19991,1.95129,408.127,31.786,45.070,45.000,0.00,0.09,-272.74,-272.81,-5,519,-944,18.5,1.9,-32.1,18.9,2.0,-31.3,5.73,2.13,-17.8,25.1
2015-12-07 00:43:00,0.0,1.95045,0.00021,407.915,0.026,0.0472,0.0015,139.996,45.000,31523.93922,1.95135,408.146,31.779,45.070,45.000,0.00,0.09,-272.75,-272.81,-5,519,-944,18.5,1.9,-32.4,18.8,2.0,-31.7,5.73,2.02,-17.8,25.1
2015-12-07 00:44:00,0.0,1.95030,0.00037,407.912,0.024,0.0469,0.0014,140.000,45.000,31524.97764,1.95121,408.142,31.796,45.070,45.000,0.00,0.09,-272.77,-272.80,-4,519,-944,18.4,1.8,-32.8,18.8,1.9,-31.9,5.73,2.31,-17.8,25.1
2015-12-07 00:45:00,0.0,1.95034,0.00031,407.923,0.038,0.0459,0.0010,139.998,45.000,31524.11907,1.95124,408.148,31.809,45.070,45.000,0.00,0.09,-272.74,-272.81,-3,519,-944,18.4,1.8,-32.9,18.8,1.9,-32.1,5.73,2.28,-17.8,25.1
2015-12-07 00:46:00,0.0,1.95029,0.00040,407.961,0.032,0.0450,0.0017,139.998,45.000,31525.45261,1.95115,408.182,31.813,45.070,45.000,0.00,0.09,-272.73,-272.81,-4,519,-944,18.4,1.8,-32.9,18.8,1.9,-32.3,5.73,2.00,-17.9,25.1
2015-12-07 00:47:00,0.0,1.95051,0.00042,407.965,0.021,0.0456,0.0019,139.997,45.000,31524.61782,1.95137,408.189,31.813,45.070,45.000,0.00,0.09,-272.76,-272.80,-5,519,-944,18.4,1.8,-33.0,18.8,1.9,-32.3,5.73,2.16,-17.9,25.1
2015-12-07 00:48:00,0.0,1.95047,0.00027,407.980,0.027,0.0442,0.0013,140.000,45.000,31525.38954,1.95131,408.197,31.805,45.070,45.000,0.00,0.09,-272.76,-272.80,-4,519,-944,18.4,1.8,-33.1,18.8,1.9,-32.4,5.73,2.36,-17.9,25.1
2015-12-07 00:49:00,0.0,1.95117,0.00050,407.949,0.028,0.0435,0.0017,139.999,45.000,31525.80403,1.95197,408.162,31.776,45.070,45.000,0.00,0.09,-272.73,-272.81,-3,519,-944,18.4,1.7,-33.4,18.8,1.8,-32.6,5.73,2.11,-17.9,25.1
2015-12-07 00:50:00,0.0,1.95156,0.00037,407.979,0.032,0.0433,0.0014,139.997,45.001,31524.35693,1.95239,408.190,31.759,45.070,45.000,0.00,0.09,-272.75,-272.81,-4,519,-944,18.4,1.7,-33.5,18.8,1.8,-32.8,5.73,2.03,-17.9,25.1
2015-12-07 00:51:00,0.0,1.95140,0.00038,407.982,0.031,0.0434,0.0015,139.999,45.001,31526.46792,1.95226,408.195,31.751,45.070,45.000,0.00,0.09,-272.76,-272.80,-5,519,-944,18.4,1.7,-33.7,18.8,1.8,-32.9,5.73,2.32,-17.9,25.1
2015-12-07 00:52:00,0.0,1.95094,0.00033,407.983,0.029,0.0432,0.0017,139.996,45.000,31524.66552,1.95178,408.196,31.750,45.071,45.000,0.00,0.09,-272.74,-272.81,-4,519,-944,18.4,1.7,-33.5,18.8,1.8,-32.8,5.73,2.27,-17.9,25.1
2015-12-07 00:53:00,0.0,1.95065,0.00049,408.002,0.035,0.0462,0.0021,139.999,45.000,31523.79042,1.95154,408.227,31.750,45.071,45.000,0.00,0.09,-272.74,-272.82,-3,519,-944,18.4,1.8,-32.9,18.7,1.8,-32.5,5.73,2.00,-17.9,25.1
2015-12-07 00:54:00,0.0,1.95069,0.00041,407.984,0.030,0.0474,0.0019,139.997,45.000,31525.81371,1.95161,408.217,31.748,45.071,45.000,0.00,0.09,-272.77,-272.80,-4,519,-944,18.3,1.9,-32.6,18.7,1.9,-32.1,5.73,2.16,-17.9,25.1
2015-12-07 00:55:00,0.0,1.95065,0.00048,407.973,0.028,0.0462,0.0014,139.995,45.000,31524.87613,1.95155,408.199,31.718,45.070,45.000,0.00,0.09,-272.76,-272.80,-4,519,-944,18.3,1.9,-32.7,18.7,1.9,-32.1,5.73,2.37,-18.0,25.0
2015-12-07 00:56:00,0.0,1.95049,0.00033,407.964,0.031,0.0478,0.0014,139.997,45.000,31524.71027,1.95138,408.198,31.701,45.070,45.000,0.00,0.09,-272.74,-272.81,-5,519,-944,18.3,1.9,-32.5,18.7,1.9,-32.0,5.73,2.11,-18.0,25.0
2015-12-07 00:57:00,0.0,1.95035,0.00044,407.970,0.033,0.0500,0.0014,139.998,45.000,31524.46375,1.95133,408.216,31.696,45.071,45.000,0.00,0.09,-272.76,-272.81,-4,519,-944,18.3,2.0,-32.0,18.7,2.0,-31.6,5.73,2.02,-17.9,25.0
2015-12-07 00:58:00,0.0,1.95017,0.00030,407.959,0.031,0.0511,0.0017,139.999,45.000,31524.84465,1.95114,408.208,31.690,45.071,45.000,0.00,0.09,-272.76,-272.80,-3,519,-944,18.3,2.0,-31.7,18.7,2.1,-31.3,5.73,2.31,-18.0,25.0
2015-12-07 00:59:00,0.0,1.95022,0.00036,407.978,0.025,0.0521,0.0018,140.000,45.000,31523.24571,1.95123,408.233,31.700,45.071,45.001,0.00,0.09,-272.74,-272.81,-4,519,-944,18.3,2.1,-31.5,18.7,2.1,-31.1,5.73,2.28,-18.0,25.0
2015-12-07 01:00:00,0.0,1.95052,0.00033,407.995,0.032,0.0530,0.0021,140.001,44.999,31521.15878,1.95151,408.257,31.726,45.071,45.000,0.00,0.09,-272.74,-272.81,-5,519,-944,18.2,2.1,-31.3,18.7,2.2,-30.9,5.73,2.01,-18.0,25.0
2015-12-07 01:01:00,0.0,1.95036,0.00050,407.999,0.036,0.0543,0.0019,140.000,44.999,31519.29944,1.95140,408.265,31.747,45.070,45.000,0.00,0.09,-272.77,-272.80,-4,519,-944,18.2,2.2,-31.1,18.6,2.2,-30.7,5.73,2.15,-18.0,25.0
2015-12-07 01:02:00,0.0,1.95011,0.00035,407.968,0.033,0.0543,0.0015,140.001,45.000,31521.79063,1.95118,408.236,31.750,45.070,45.000,0.00,0.09,-272.75,-272.80,-3,519,-944,18.2,2.2,-31.1,18.7,2.2,-30.6,5.73,2.37,-18.0,25.0
2015-12-07 01:03:00,0.0,1.95008,0.00037,407.967,0.031,0.0544,0.0015,140.000,45.000,31522.52255,1.95113,408.233,31.750,45.070,45.000,0.00,0.08,-272.74,-272.82,-4,518,-944,18.2,2.2,-31.1,18.6,2.2,-30.6,5.73,2.12,-18.0,25.0
2015-12-07 01:04:00,0.0,1.94984,0.00029,407.960,0.030,0.0544,0.0018,139.999,45.000,31522.74407,1.95089,408.228,31.750,45.070,45.000,0.00,0.09,-272.76,-272.81,-4,518,-944,18.2,2.2,-31.1,18.6,2.2,-30.6,5.73,2.02,-18.0,25.0
2015-12-07 01:05:00,0.0,1.94990,0.00031,407.948,0.029,0.0546,0.0020,139.999,45.000,31522.81545,1.95096,408.215,31.742,45.070,45.000,0.00,0.09,-272.76,-272.80,-5,519,-944,18.2,2.2,-31.1,18.6,2.2,-30.6,5.73,2.30,-18.0,25.0
2015-12-07 01:06:00,0.0,1.94987,0.00021,407.966,0.028,0.0532,0.0012,139.999,45.000,31522.14396,1.95088,408.227,31.698,45.070,45.000,0.00,0.09,-272.75,-272.82,-4,519,-944,18.2,2.1,-31.3,18.6,2.2,-30.7,5.73,2.28,-18.0,25.0
2015-12-07 01:07:00,0.0,1.94999,0.00047,407.948,0.034,0.0531,0.0016,139.997,45.000,31521.34451,1.95100,408.207,31.694,45.070,45.000,0.00,0.08,-272.75,-272.82,-3,518,-944,18.2,2.1,-31.4,18.6,2.2,-30.8,5.73,2.00,-18.0,25.0
2015-12-07 01:08:00,0.0,1.95020,0.00048,407.953,0.034,0.0522,0.0018,140.001,45.000,31520.89711,1.95119,408.210,31.701,45.070,45.000,0.00,0.09,-272.76,-272.80,-4,518,-944,18.2,2.1,-31.5,18.6,2.1,-31.0,5.73,2.15,-18.0,25.0
2015-12-07 01:09:00,0.0,1.95024,0.00035,407.954,0.028,0.0509,0.0021,139.999,45.000,31518.53652,1.95121,408.203,31.726,45.070,45.000,0.00,0.09,-272.75,-272.80,-5,518,-944,18.2,2.1,-31.7,18.6,2.1,-31.0,5.73,2.36,-18.1,24.9
2015-12-07 01:10:00,0.0,1.95012,0.00034,407.960,0.036,0.0499,0.0020,139.999,45.000,31517.79351,1.95107,408.205,31.741,45.070,45.000,0.00,0.08,-272.74,-272.82,-4,519,-944,18.1,2.0,-32.0,18.6,2.1,-31.3,5.73,2.13,-18.0,24.9
2015-12-07 01:11:00,0.0,1.95038,0.00027,407.946,0.029,0.0478,0.0015,140.000,45.000,31516.88862,1.95130,408.179,31.743,45.070,45.000,0.00,0.09,-272.75,-272.81,-3,518,-944,18.1,1.9,-32.4,18.5,2.0,-31.7,5.73,2.01,-18.0,24.9
2015-12-07 01:12:00,0.0,1.95065,0.00037,407.959,0.033,0.0488,0.0022,140.001,45.000,31516.78185,1.95157,408.199,31.738,45.070,45.000,0.00,0.09,-272.76,-272.79,-4,518,-944,18.1,1.9,-32.4,18.5,2.0,-31.7,5.73,2.29,-18.0,24.9
2015-12-07 01:13:00,0.0,1.95081,0.00055,407.983,0.030,0.0489,0.0018,140.000,45.000,31519.51652,1.95175,408.222,31.737,45.070,45.000,0.00,0.09,-272.74,-272.81,-5,518,-944,18.1,1.9,-32.3,18.5,2.0,-31.7,5.73,2.30,-18.1,24.9
2015-12-07 01:14:00,0.0,1.95059,0.00039,407.983,0.026,0.0485,0.0020,139.998,44.999,31518.27440,1.95152,408.221,31.728,45.070,45.000,0.00,0.08,-272.74,-272.82,-4,518,-944,18.1,2.0,-32.2,18.5,2.0,-31.7,5.73,2.02,-18.1,24.9
2015-12-07 01:15:00,0.0,1.95085,0.00051,407.974,0.028,0.0508,0.0014,139.999,45.000,31516.74682,1.95181,408.223,31.700,45.070,45.000,0.00,0.09,-272.76,-272.80,-3,518,-944,18.1,2.0,-32.0,18.5,2.0,-31.5,5.73,2.12,-18.1,24.9
2015-12-07 01:16:00,0.0,1.95038,0.00035,407.971,0.043,0.0509,0.0018,139.998,45.000,31518.12149,1.95138,408.221,31.696,45.070,45.000,0.00,0.09,-272.75,-272.80,-3,518,-944,18.1,2.0,-32.0,18.5,2.1,-31.4,5.73,2.36,-18.1,24.9
2015-12-07 01:17:00,0.0,1.95059,0.00044,407.974,0.032,0.0502,0.0020,139.997,45.000,31517.31126,1.95154,408.221,31.690,45.070,45.000,0.00,0.08,-272.74,-272.82,-4,518,-944,18.1,2.0,-31.9,18.5,2.1,-31.4,5.73,2.18,-18.1,24.9
2015-12-07 01:18:00,0.0,1.95034,0.00037,407.986,0.033,0.0505,0.0014,139.999,45.000,31517.76407,1.95134,408.233,31.702,45.071,45.000,0.00,0.09,-272.74,-272.81,-4,518,-944,18.1,2.0,-31.8,18.5,2.1,-31.3,5.73,2.00,-18.1,24.9
2015-12-07 01:19:00,0.0,1.95049,0.00027,407.958,0.034,0.0516,0.0017,140.000,45.000,31516.75164,1.95146,408.211,31.740,45.070,45.000,0.00,0.09,-272.76,-272.79,-4,518,-944,18.1,2.1,-31.7,18.5,2.1,-31.2,5.73,2.24,-18.1,24.9
2015-12-07 01:20:00,0.0,1.95084,0.00034,407.968,0.040,0.0517,0.0024,140.001,45.000,31515.32467,1.95183,408.220,31.741,45.070,45.000,0.00,0.09,-272.75,-272.81,-3,518,-944,18.1,2.1,-31.7,18.5,2.1,-31.2,5.73,2.34,-18.1,24.9
2015-12-07 01:21:00,0.0,1.95059,0.00045,407.973,0.027,0.0512,0.0018,140.000,45.000,31515.59908,1.95158,408.224,31.743,45.070,45.000,0.00,0.09,-272.75,-272.82,-3,518,-944,18.0,2.1,-31.7,18.5,2.1,-31.2,5.73,2.06,-18.1,24.9
2015-12-07 01:22:00,0.0,1.95053,0.00029,407.968,0.029,0.0515,0.0018,139.996,45.000,31515.88985,1.95150,408.221,31.727,45.070,45.000,0.00,0.09,-272.75,-272.80,-4,518,-944,18.1,2.1,-31.7,18.5,2.1,-31.2,5.73,2.06,-18.1,24.9
2015-12-07 01:23:00,0.0,1.95031,0.00044,407.955,0.036,0.0510,0.0018,139.999,45.000,31517.74653,1.95131,408.205,31.727,45.070,45.000,0.00,0.09,-272.77,-272.80,-4,518,-944,18.0,2.1,-31.7,18.4,2.1,-31.2,5.73,2.34,-18.1,24.9
2015-12-07 01:24:00,0.0,1.95080,0.00037,407.950,0.039,0.0507,0.0023,139.999,45.000,31517.34597,1.95176,408.198,31.709,45.070,45.000,0.00,0.08,-272.75,-272.82,-3,518,-944,18.0,2.1,-31.8,18.4,2.1,-31.2,5.73,2.24,-18.1,24.9
2015-12-07 01:25:00,0.0,1.95057,0.00048,407.966,0.033,0.0506,0.0017,139.999,45.000,31517.10511,1.95157,408.215,31.707,45.070,45.000,0.00,0.09,-272.74,-272.81,-3,518,-944,18.0,2.1,-31.7,18.4,2.1,-31.2,5.73,1.99,-18.1,24.9
2015-12-07 01:26:00,0.0,1.95064,0.00041,407.989,0.032,0.0517,0.0017,139.997,45.000,31514.24077,1.95162,408.242,31.691,45.070,45.000,0.00,0.09,-272.77,-272.79,-4,518,-944,18.0,2.1,-31.7,18.4,2.1,-31.2,5.73,2.19,-18.1,24.9
2015-12-07 01:27:00,0.0,1.95048,0.00048,407.960,0.032,0.0515,0.0014,139.998,45.000,31513.70381,1.95146,408.213,31.691,45.070,45.000,0.00,0.09,-272.76,-272.80,-4,518,-944,18.0,2.1,-31.7,18.4,2.1,-31.2,5.73,2.35,-18.1,24.9
2015-12-07 01:28:00,0.0,1.95045,0.00028,407.972,0.028,0.0526,0.0015,139.998,45.000,31513.66219,1.95146,408.229,31.685,45.070,45.000,0.00,0.09,-272.74,-272.82,-4,518,-944,18.0,2.1,-31.6,18.4,2.1,-31.1,5.73,2.11,-18.1,24.8
2015-12-07 01:29:00,0.0,1.95052,0.00044,407.981,0.026,0.0533,0.0015,139.997,45.000,31512.29071,1.95155,408.242,31.661,45.070,45.000,0.00,0.09,-272.75,-272.81,-3,518,-944,18.0,2.1,-31.5,18.4,2.2,-31.0,5.73,2.03,-18.1,24.8
2015-12-07 01:30:00,0.0,1.95032,0.00042,407.971,0.025,0.0532,0.0017,139.999,45.000,31514.90522,1.95138,408.233,31.688,45.071,45.000,0.00,0.09,-272.76,-272.80,-3,518,-944,18.0,2.1,-31.4,18.4,2.2,-30.8,5.73,2.31,-18.1,24.8
2015-12-07 01:31:00,0.0,1.95048,0.00036,407.963,0.031,0.0540,0.0014,139.997,45.000,31512.27808,1.95149,408.226,31.677,45.071,45.000,0.00,0.09,-272.75,-272.82,-4,518,-944,18.0,2.2,-31.3,18.4,2.2,-30.7,5.73,2.28,-18.1,24.8
2015-12-07 01:32:00,0.0,1.95060,0.00037,407.993,0.040,0.0534,0.0019,139.999,45.000,31511.09615,1.95163,408.256,31.684,45.070,45.000,0.00,0.09,-272.74,-272.82,-4,518,-944,18.0,2.2,-31.4,18.4,2.2,-30.7,5.73,2.01,-18.1,24.8
2015-12-07 01:33:00,0.0,1.95032,0.00043,407.975,0.044,0.0542,0.0017,139.999,45.000,31511.82166,1.95135,408.241,31.688,45.070,45.000,0.00,0.09,-272.76,-272.80,-3,518,-944,18.0,2.2,-31.2,18.4,2.2,-30.7,5.73,2.13,-18.1,24.8
2015-12-07 01:34:00,0.0,1.95030,0.00039,407.953,0.033,0.0540,0.0017,139.999,45.000,31512.37484,1.95133,408.218,31.686,45.070,45.000,0.00,0.09,-272.76,-272.81,-3,518,-944,18.0,2.2,-31.3,18.4,2.2,-30.7,5.73,2.36,-18.1,24.8
2015-12-07 01:35:00,0.0,1.95042,0.00030,407.968,0.041,0.0535,0.0018,139.999,44.999,31511.81741,1.95146,408.230,31.680,45.070,45.000,0.00,0.08,-272.74,-272.83,-4,518,-944,18.0,2.1,-31.4,18.4,2.2,-30.8,5.73,2.16,-18.1,24.8
2015-12-07 01:36:00,0.0,1.95037,0.00042,407.952,0.035,0.0530,0.0013,139.998,45.000,31511.49219,1.95137,408.213,31.676,45.070,45.000,0.00,0.09,-272.74,-272.81,-4,517,-944,18.0,2.1,-31.4,18.4,2.2,-30.9,5.73,2.01,-18.1,24.8
2015-12-07 01:37:00,0.0,1.95050,0.00044,407.952,0.032,0.0542,0.0019,139.997,45.000,31510.04616,1.95154,408.217,31.688,45.070,45.000,0.00,0.09,-272.77,-272.80,-4,518,-944,18.0,2.2,-31.4,18.4,2.2,-30.8,5.73,2.26,-18.1,24.8
2015-12-07 01:38:00,0.0,1.95037,0.00036,407.989,0.029,0.0541,0.0018,139.998,45.000,31510.38264,1.95142,408.254,31.691,45.070,45.000,0.00,0.08,-272.76,-272.81,-3,518,-944,18.0,2.2,-31.2,18.3,2.2,-30.8,5.73,2.33,-18.1,24.8
2015-12-07 01:39:00,0.0,1.95040,0.00029,407.952,0.032,0.0545,0.0012,139.999,45.000,31509.20300,1.95146,408.221,31.690,45.070,45.000,0.00,0.09,-272.74,-272.81,-3,517,-944,17.9,2.2,-31.1,18.4,2.3,-30.6,5.73,2.05,-18.1,24.8
2015-12-07 01:40:00,0.0,1.95007,0.00046,407.969,0.031,0.0546,0.0015,140.000,45.000,31510.68937,1.95113,408.237,31.684,45.070,45.000,0.00,0.09,-272.75,-272.80,-4,517,-944,17.9,2.2,-31.2,18.3,2.3,-30.6,5.73,2.07,-18.1,24.8
2015-12-07 01:41:00,0.0,1.95015,0.00038,407.968,0.031,0.0544,0.0013,139.999,45.000,31511.46835,1.95115,408.234,31.654,45.070,45.000,0.00,0.09,-272.76,-272.80,-4,518,-944,17.9,2.2,-31.3,18.3,2.2,-30.7,5.73,2.34,-18.2,24.8
2015-12-07 01:42:00,0.0,1.95034,0.00030,407.970,0.026,0.0545,0.0018,140.000,45.000,31510.10115,1.95139,408.238,31.672,45.070,45.000,0.00,0.09,-272.74,-272.82,-4,517,-944,17.9,2.2,-31.3,18.3,2.2,-30.7,5.73,2.23,-18.2,24.8
2015-12-07 01:43:00,0.0,1.95031,0.00034,407.973,0.033,0.0549,0.0015,139.998,45.000,31508.70846,1.95136,408.243,31.685,45.070,45.000,0.00,0.09,-272.74,-272.81,-3,517,-944,17.9,2.2,-31.2,18.3,2.3,-30.6,5.73,2.00,-18.2,24.8
2015-12-07 01:44:00,0.0,1.95045,0.00029,407.978,0.033,0.0543,0.0017,139.999,45.000,31508.33980,1.95148,408.244,31.675,45.070,45.000,0.00,0.09,-272.76,-272.80,-3,517,-944,17.9,2.2,-31.3,18.3,2.3,-30.6,5.73,2.18,-18.2,24.8
2015-12-07 01:45:00,0.0,1.95031,0.00051,407.977,0.025,0.0530,0.0023,140.000,45.000,31507.95071,1.95136,408.237,31.650,45.070,45.000,0.00,0.09,-272.76,-272.81,-4,517,-944,17.9,2.1,-31.6,18.3,2.2,-30.9,5.73,2.36,-18.2,24.7